When you browse on this site, cookies collect data to enhance your experience and personalize the content and advertising you see.
Visit our Privacy Policy to learn more. By continuing to use the site, you agree to this use of cookies and data.
  • In Schweiz
  • Länderverzeichnis
  • Für 7 Tage
  • Wassertemperatur
  • Satellitenkarten
  • Wetterkarte
  • Widgets
  • user-avatar
    Anmelden

    Stündliche Wetter Pinneberg

    Heute, 26 Mai, Sonntag

    Zeit Temperatur Niederschläge Wind Luftdruck Luftfeuchtigkeit
    00:00 +7°C° 0 mm 2 m/S 759 mmHg 96%
    01:00 +7°C° 0 mm 2 m/S 759 mmHg 96%
    02:00 +7°C° 0 mm 2 m/S 759 mmHg 95%
    03:00 +7°C° 0 mm 3 m/S 758 mmHg 94%
    04:00 +7°C° 0 mm 3 m/S 758 mmHg 93%
    05:00 +9°C° 0 mm 3 m/S 757 mmHg 90%
    06:00 +10°C° 0 mm 4 m/S 757 mmHg 87%
    07:00 +12°C° 0 mm 5 m/S 756 mmHg 83%
    08:00 +12°C° 0.1 mm 5 m/S 756 mmHg 82%
    09:00 +13°C° 0.1 mm 6 m/S 755 mmHg 80%
    10:00 +14°C° 0.1 mm 6 m/S 755 mmHg 79%
    11:00 +14°C° 0.2 mm 5 m/S 755 mmHg 82%
    12:00 +14°C° 0.2 mm 5 m/S 755 mmHg 86%
    13:00 +14°C° 0.2 mm 5 m/S 754 mmHg 90%
    14:00 +15°C° 0.2 mm 5 m/S 754 mmHg 88%
    15:00 +16°C° 0.2 mm 5 m/S 754 mmHg 86%
    16:00 +19°C° 0.2 mm 5 m/S 753 mmHg 84%
    17:00 +17°C° 1 mm 5 m/S 753 mmHg 87%
    18:00 +16°C° 1 mm 5 m/S 752 mmHg 91%
    19:00 +15°C° 1 mm 5 m/S 752 mmHg 94%
    20:00 +15°C° 1.3 mm 5 m/S 752 mmHg 95%
    21:00 +14°C° 1.3 mm 5 m/S 752 mmHg 95%
    22:00 +14°C° 1.3 mm 5 m/S 752 mmHg 96%
    23:00 +14°C° 0.9 mm 4 m/S 752 mmHg 96%

    Morgen, 27 Mai, Montag

    Zeit Temperatur Niederschläge Wind Luftdruck Luftfeuchtigkeit
    00:00 +14°C° 0.9 mm 4 m/S 752 mmHg 97%
    01:00 +13°C° 0.9 mm 4 m/S 752 mmHg 97%
    02:00 +13°C° 0.4 mm 4 m/S 752 mmHg 97%
    03:00 +12°C° 0.4 mm 4 m/S 751 mmHg 96%
    04:00 +12°C° 0.4 mm 4 m/S 751 mmHg 96%
    05:00 +12°C° 0 mm 4 m/S 752 mmHg 94%
    06:00 +12°C° 0 mm 4 m/S 752 mmHg 92%
    07:00 +12°C° 0 mm 4 m/S 752 mmHg 90%
    08:00 +13°C° 0 mm 5 m/S 753 mmHg 81%
    09:00 +14°C° 0 mm 5 m/S 753 mmHg 73%
    10:00 +15°C° 0 mm 6 m/S 753 mmHg 64%
    11:00 +16°C° 0 mm 6 m/S 753 mmHg 63%
    12:00 +16°C° 0 mm 6 m/S 753 mmHg 62%
    13:00 +16°C° 0 mm 6 m/S 753 mmHg 61%
    14:00 +16°C° 0.1 mm 6 m/S 753 mmHg 63%
    15:00 +15°C° 0.1 mm 6 m/S 753 mmHg 65%
    16:00 +15°C° 0.1 mm 6 m/S 753 mmHg 67%
    17:00 +14°C° 0 mm 5 m/S 753 mmHg 68%
    18:00 +14°C° 0 mm 5 m/S 753 mmHg 70%
    19:00 +13°C° 0 mm 5 m/S 753 mmHg 72%
    20:00 +11°C° 0 mm 4 m/S 754 mmHg 79%
    21:00 +9°C° 0 mm 3 m/S 754 mmHg 86%
    22:00 +8°C° 0 mm 2 m/S 754 mmHg 93%
    23:00 +7°C° 0 mm 2 m/S 754 mmHg 94%

    übermorgen, 28 Mai, Dienstag

    Zeit Temperatur Niederschläge Wind Luftdruck Luftfeuchtigkeit
    00:00 +8°C° 0 mm 1 m/S 754 mmHg 94%
    01:00 +7°C° 0 mm 1 m/S 754 mmHg 95%
    02:00 +7°C° 0 mm 1 m/S 754 mmHg 95%
    03:00 +7°C° 0 mm 1 m/S 754 mmHg 95%
    04:00 +5°C° 0 mm 0 m/S 753 mmHg 95%
    05:00 +6°C° 0.1 mm 0 m/S 754 mmHg 93%
    06:00 +8°C° 0.1 mm 1 m/S 754 mmHg 91%
    07:00 +9°C° 0.1 mm 1 m/S 754 mmHg 89%
    08:00 +10°C° 0.2 mm 1 m/S 754 mmHg 87%
    09:00 +11°C° 0.2 mm 1 m/S 754 mmHg 85%
    10:00 +12°C° 0.2 mm 1 m/S 754 mmHg 83%
    11:00 +14°C° 0.1 mm 1 m/S 754 mmHg 78%
    12:00 +15°C° 0.1 mm 1 m/S 754 mmHg 72%
    13:00 +18°C° 0.1 mm 1 m/S 754 mmHg 67%
    14:00 +16°C° 1 mm 1 m/S 754 mmHg 73%
    15:00 +16°C° 1 mm 2 m/S 754 mmHg 79%
    16:00 +14°C° 1 mm 3 m/S 754 mmHg 86%
    17:00 +13°C° 0.8 mm 3 m/S 754 mmHg 88%
    18:00 +12°C° 0.8 mm 3 m/S 755 mmHg 90%
    19:00 +12°C° 0.8 mm 3 m/S 755 mmHg 92%
    20:00 +11°C° 0.2 mm 3 m/S 756 mmHg 93%
    21:00 +10°C° 0.2 mm 2 m/S 756 mmHg 93%
    22:00 +9°C° 0.2 mm 2 m/S 757 mmHg 94%
    23:00 +8°C° 0 mm 2 m/S 757 mmHg 93%

    29 Mai, Mittwoch

    Zeit Temperatur Niederschläge Wind Luftdruck Luftfeuchtigkeit
    00:00 +7°C° 0 mm 2 m/S 758 mmHg 93%
    01:00 +5°C° 0 mm 3 m/S 758 mmHg 92%
    02:00 +4°C° 0 mm 3 m/S 759 mmHg 92%
    03:00 +3°C° 0 mm 3 m/S 759 mmHg 92%
    04:00 +4°C° 0 mm 2 m/S 760 mmHg 92%
    05:00 +5°C° 0 mm 2 m/S 760 mmHg 88%
    06:00 +5°C° 0 mm 3 m/S 761 mmHg 83%
    07:00 +8°C° 0 mm 3 m/S 761 mmHg 78%
    08:00 +9°C° 0 mm 3 m/S 762 mmHg 70%
    09:00 +12°C° 0 mm 2 m/S 762 mmHg 62%
    10:00 +13°C° 0 mm 2 m/S 762 mmHg 54%
    11:00 +14°C° 0 mm 2 m/S 763 mmHg 53%
    12:00 +14°C° 0 mm 2 m/S 763 mmHg 52%
    13:00 +15°C° 0 mm 2 m/S 763 mmHg 51%
    14:00 +15°C° 0 mm 2 m/S 763 mmHg 52%
    15:00 +15°C° 0 mm 2 m/S 763 mmHg 54%
    16:00 +15°C° 0 mm 2 m/S 763 mmHg 55%
    17:00 +14°C° 0 mm 2 m/S 763 mmHg 60%
    18:00 +14°C° 0 mm 2 m/S 764 mmHg 64%
    19:00 +13°C° 0 mm 2 m/S 764 mmHg 68%
    20:00 +10°C° 0 mm 2 m/S 764 mmHg 74%
    21:00 +9°C° 0 mm 1 m/S 764 mmHg 80%
    22:00 +7°C° 0 mm 1 m/S 764 mmHg 85%
    23:00 +7°C° 0 mm 1 m/S 764 mmHg 85%

    30 Mai, Donnerstag

    Zeit Temperatur Niederschläge Wind Luftdruck Luftfeuchtigkeit
    00:00 +7°C° 0 mm 1 m/S 764 mmHg 85%
    01:00 +7°C° 0 mm 1 m/S 764 mmHg 85%
    02:00 +5°C° 0 mm 2 m/S 764 mmHg 86%
    03:00 +5°C° 0 mm 2 m/S 764 mmHg 86%
    04:00 +5°C° 0 mm 2 m/S 764 mmHg 87%
    05:00 +7°C° 0 mm 3 m/S 763 mmHg 82%
    06:00 +9°C° 0 mm 3 m/S 763 mmHg 77%
    07:00 +11°C° 0 mm 4 m/S 763 mmHg 72%
    08:00 +12°C° 0 mm 4 m/S 763 mmHg 71%
    09:00 +13°C° 0 mm 5 m/S 762 mmHg 70%
    10:00 +14°C° 0 mm 5 m/S 762 mmHg 69%
    11:00 +14°C° 0.1 mm 5 m/S 761 mmHg 72%
    12:00 +14°C° 0.1 mm 5 m/S 761 mmHg 76%
    13:00 +14°C° 0.1 mm 5 m/S 760 mmHg 79%
    14:00 +14°C° 0.4 mm 5 m/S 760 mmHg 82%
    15:00 +14°C° 0.4 mm 5 m/S 760 mmHg 86%
    16:00 +14°C° 0.4 mm 4 m/S 759 mmHg 89%
    17:00 +14°C° 1.2 mm 5 m/S 759 mmHg 91%
    18:00 +14°C° 1.2 mm 5 m/S 759 mmHg 93%
    19:00 +13°C° 1.2 mm 5 m/S 759 mmHg 95%
    20:00 +13°C° 0.2 mm 5 m/S 759 mmHg 95%
    21:00 +12°C° 0.2 mm 4 m/S 760 mmHg 95%
    22:00 +12°C° 0.2 mm 4 m/S 760 mmHg 95%
    23:00 +11°C° 0 mm 4 m/S 761 mmHg 95%

    31 Mai, Freitag

    Zeit Temperatur Niederschläge Wind Luftdruck Luftfeuchtigkeit
    00:00 +9°C° 0 mm 3 m/S 761 mmHg 95%
    01:00 +8°C° 0 mm 3 m/S 761 mmHg 95%
    02:00 +7°C° 0 mm 3 m/S 762 mmHg 94%
    03:00 +5°C° 0 mm 3 m/S 763 mmHg 94%
    04:00 +6°C° 0 mm 2 m/S 763 mmHg 94%
    05:00 +7°C° 0 mm 3 m/S 764 mmHg 89%
    06:00 +8°C° 0 mm 3 m/S 765 mmHg 85%
    07:00 +8°C° 0 mm 4 m/S 765 mmHg 80%
    08:00 +10°C° 0 mm 4 m/S 766 mmHg 73%
    09:00 +10°C° 0 mm 5 m/S 766 mmHg 66%
    10:00 +13°C° 0 mm 5 m/S 766 mmHg 59%
    11:00 +13°C° 0 mm 6 m/S 767 mmHg 59%
    12:00 +13°C° 0 mm 6 m/S 767 mmHg 58%
    13:00 +13°C° 0 mm 6 m/S 767 mmHg 58%
    14:00 +13°C° 0 mm 6 m/S 768 mmHg 57%
    15:00 +14°C° 0 mm 6 m/S 768 mmHg 57%
    16:00 +14°C° 0 mm 6 m/S 768 mmHg 56%
    17:00 +13°C° 0 mm 6 m/S 769 mmHg 61%
    18:00 +12°C° 0 mm 5 m/S 769 mmHg 65%
    19:00 +11°C° 0 mm 4 m/S 770 mmHg 70%
    20:00 +10°C° 0 mm 4 m/S 770 mmHg 76%
    21:00 +8°C° 0 mm 3 m/S 770 mmHg 83%
    22:00 +5°C° 0 mm 3 m/S 771 mmHg 90%
    23:00 +6°C° 0 mm 2 m/S 771 mmHg 91%
    Mehr zeigen